#timestamp,LO_Frequency,Hit,StdDev 
1502233215.5,286046999.6,P,1.2
1502233235.4,286046998.4,N,1.5
1502233255.2,286046996.6,N,2.0
1502233275.0,286046999.5,N,1.8
1502233275.9,286046999.5,N,1.6
1502233295.8,286046996.5,N,1.8
1502233315.6,286046999.3,N,1.7
1502233335.5,286046998.9,N,1.6
1502233355.3,286046998.1,N,1.5
1502233375.1,286047001.2,N,1.6
1502233395.9,286046998.5,N,1.5
1502233415.7,286047000.8,N,1.5
1502233435.6,286046999.5,N,1.5
1502233455.4,286046998.7,N,1.5
1502233475.2,286047001.2,N,1.5
1502233495.1,286046999.8,N,1.5
1502233496.0,286046999.8,N,1.4
1502233515.8,286047001.0,N,1.4
1502233535.7,286047000.5,N,1.4
1502233555.5,286047002.5,N,1.5
1502233575.3,286047001.6,N,1.5
1502233595.2,286047001.5,N,1.6
1502233615.0,286047001.4,N,1.6
1502233615.9,286047001.4,N,1.6
1502233635.8,286047001.6,N,1.6
1502233655.6,286047002.0,N,1.6
1502233675.4,286047001.4,N,1.6
1502233695.3,286047003.9,N,1.7
1502233715.1,286047004.4,N,1.8
1502233735.8,286047004.2,N,1.9
1502233755.7,286047001.7,N,1.9
1502233775.5,286047001.7,N,1.9
1502233795.4,286047002.2,N,1.8
1502233815.2,286047005.5,Y,0.0
1502233835.0,286047003.4,P,1.3
1502233835.9,286047003.4,N,1.2
1502233855.8,286047003.3,N,1.1
1502233875.6,286047003.4,Y,0.0
1502233895.5,286047000.2,P,1.3
1502233915.3,286047000.6,N,1.1
1502233935.1,286047000.4,N,1.0
1502233955.9,286047002.0,N,1.0
1502233975.7,286047001.8,N,0.9
1502233995.6,286047002.5,N,1.0
1502234015.4,286047002.3,N,0.9
1502234035.2,286047002.4,N,0.9
1502234055.1,286047002.4,N,0.9
1502234056.0,286047002.4,N,0.9
1502234075.8,286047002.7,Y,0.0
1502234095.7,286046998.7,P,1.5
1502234115.5,286046998.3,N,1.6
1502234135.3,286046998.1,N,1.5
1502234155.2,286047000.3,N,1.4
1502234175.0,286047000.5,N,1.3
1502234175.9,286047000.5,N,1.3
1502234195.8,286047000.5,N,1.2
1502234215.6,286046998.1,N,1.3
1502234235.5,286047000.7,N,1.3
1502234255.3,286047000.8,N,1.2
1502234275.1,286046998.3,N,1.3
1502234295.9,286046999.3,N,1.2
1502234315.7,286046999.6,N,1.2
1502234335.5,286046999.2,N,1.1
1502234355.4,286046998.1,N,1.2
1502234375.2,286046999.9,N,1.1
1502234395.1,286047000.8,N,1.1
1502234396.0,286047000.8,N,1.1
1502234415.8,286046998.2,N,1.2
1502234435.7,286046998.5,N,1.1
1502234455.5,286046998.8,N,1.1
1502234475.3,286046998.5,N,1.1
1502234495.2,286046998.5,N,1.1
1502234515.0,286046998.2,N,1.1
1502234515.9,286046998.2,N,1.1
1502234535.8,286046999.2,N,1.1
1502234555.6,286046999.6,N,1.1
1502234575.4,286046996.5,Y,0.0
1502234595.3,286046998.4,P,0.5
1502234615.1,286046998.3,P,0.5
1502234635.9,286047000.5,N,0.9
1502234655.7,286046998.2,N,0.9
1502234675.5,286046998.4,N,0.8
1502234695.4,286046998.9,N,0.8
1502234715.2,286046998.7,N,0.7
1502234735.0,286046998.3,N,0.7
1502234735.9,286046998.3,N,0.7
1502234755.8,286046996.7,Y,0.0
1502234775.6,286046998.7,P,0.0
1502234795.5,286046998.8,P,0.0
1502234815.3,286047001.2,P,1.1
1502234835.1,286046998.2,N,1.1
1502234855.9,286047000.5,N,1.1
1502234875.7,286047001.1,N,1.2
1502234895.6,286047001.1,N,1.2
1502234915.4,286047001.0,N,1.2
1502234935.2,286047000.8,N,1.2
1502234955.1,286046998.5,N,1.2
1502234956.0,286046998.5,N,1.2
1502234975.8,286046998.6,N,1.2
1502234995.7,286046999.1,N,1.2
1502235015.5,286046998.8,N,1.1
1502235035.3,286046998.8,N,1.1
1502235055.2,286046999.0,N,1.1
1502235075.0,286046999.3,N,1.1
1502235075.9,286046999.3,N,1.0
1502235095.8,286046996.7,Y,0.0
1502235115.6,286046999.4,P,0.0
1502235135.4,286046998.1,P,0.6
1502235155.3,286047001.0,N,1.0
1502235175.1,286047001.1,N,1.1
1502235195.9,286047000.8,N,1.1
1502235215.7,286047001.0,N,1.1
1502235235.5,286047001.1,N,1.0
1502235255.4,286047001.1,N,1.0
1502235275.2,286047001.2,N,1.0
1502235295.0,286047000.7,N,1.0
1502235295.9,286047000.7,N,0.9
1502235315.8,286046998.5,N,1.0
1502235335.6,286046998.6,N,1.1
1502235355.5,286046998.3,N,1.2
1502235375.3,286046998.7,N,1.2
1502235395.1,286046998.6,N,1.2
1502235415.9,286046999.3,N,1.2
1502235435.7,286046998.3,N,1.2
1502235455.6,286046998.5,N,1.2
1502235475.4,286047001.1,N,1.2
1502235495.2,286046998.9,N,1.2
1502235515.1,286046998.9,N,1.2
1502235516.0,286046998.9,N,1.1
1502235535.8,286046998.6,N,1.1
1502235555.7,286046999.0,N,1.1
1502235575.5,286046999.2,N,1.1
1502235595.3,286046998.3,N,1.1
1502235615.2,286046998.4,N,1.1
1502235635.0,286046999.4,N,1.1
1502235635.9,286046999.4,N,1.1
1502235655.8,286046998.8,N,1.1
1502235675.6,286046996.9,N,1.2
1502235695.4,286046996.7,N,1.2
1502235715.3,286046997.0,N,1.3
1502235735.1,286046999.5,N,1.2
1502235755.8,286046996.5,N,1.3
1502235775.7,286046997.0,N,1.2
1502235795.5,286046996.7,N,1.2
1502235815.4,286046999.3,N,1.1
1502235835.2,286046997.1,N,1.1
1502235855.0,286046999.0,N,1.0
1502235855.9,286046999.0,N,1.0
1502235875.8,286046998.5,N,1.0
1502235895.6,286046998.7,N,1.0
1502235915.5,286046998.4,N,1.0
1502235935.3,286046998.2,N,1.0
1502235955.1,286046998.2,N,1.0
1502235975.9,286046998.2,N,1.0
1502235995.7,286046998.3,N,1.0
1502236015.6,286046999.1,N,0.9
1502236035.4,286046997.4,N,0.9
1502236055.2,286046999.5,N,0.9
1502236075.1,286046998.8,N,0.9
1502236076.0,286046998.8,N,0.9
1502236095.8,286046999.4,N,0.9
1502236115.6,286046999.3,N,0.9
1502236135.5,286046999.4,N,1.0
1502236155.3,286046997.3,N,1.0
1502236175.2,286046997.3,N,1.0
1502236195.0,286046996.6,Y,0.0
1502236195.9,286046996.6,P,0.8
1502236215.7,286047000.8,N,1.7
1502236235.6,286047001.2,N,1.9
1502236255.4,286046998.6,N,1.7
1502236275.3,286046999.0,N,1.6
1502236295.1,286047000.8,N,1.6
1502236315.8,286047000.1,N,1.5
1502236335.7,286047000.8,N,1.5
1502236355.5,286047000.5,N,1.4
1502236375.4,286047000.8,N,1.4
1502236395.2,286046998.3,N,1.4
1502236415.0,286046998.9,N,1.4
1502236415.9,286046998.9,N,1.3
1502236435.8,286046998.6,N,1.3
1502236455.6,286046998.9,N,1.3
1502236475.5,286047001.1,N,1.3
1502236495.3,286047001.1,N,1.3
1502236515.1,286047000.8,N,1.3
1502236535.9,286047001.2,N,1.3
1502236555.7,286046998.2,N,1.3
1502236575.6,286047000.4,N,1.3
1502236595.4,286047000.9,N,1.3
1502236615.2,286047000.5,N,1.3
1502236635.1,286046998.2,N,1.3
1502236636.0,286046998.2,N,1.3
1502236655.8,286046998.8,N,1.3
1502236675.7,286047000.7,N,1.3
1502236695.5,286047000.7,N,1.3
1502236715.3,286047000.6,N,1.2
1502236735.2,286046998.1,N,1.3
1502236755.0,286047000.7,N,1.1
1502236755.9,286047000.7,N,1.1
1502236775.8,286046998.8,N,1.1
1502236795.6,286047001.1,N,1.1
